Dansville, NY

6:22 PM EST on February 25, 2017 (GMT -0500)
Dansville Municipal

Weather History for KDSV - September, 2013

Change the Weather History Date:

Friday, September 6, 2013

  Actual Average Record
Temperature  
Mean Temperature 57 °F -  
Max Temperature 72 °F 77 °F 93 °F (1954)
Min Temperature 42 °F 53 °F 37 °F (1976)
Degree Days  
Heating Degree Days 8    
Growing Degree Days 7 (Base 50)    
Moisture  
Dew Point 45 °F    
Average Humidity 68    
Maximum Humidity 92    
Minimum Humidity 36    
Precipitation  
Precipitation 0.00 in - - ()
Sea Level Pressure  
Sea Level Pressure 30.27 in    
Wind  
Wind Speed 4 mph (SE)    
Max Wind Speed 6 mph    
Max Gust Speed -    
Visibility 10 miles    
Events      
Averages and records for this station are not official NWS values.
T = Trace of Precipitation, MM = Missing Value Source: NWS Daily Summary

Daily Weather History Graph

Daily Weather History Graph

Search for Another Location

Airport or City:

Trip Planner

Search our weather history database for the weather conditions in past years. The results will help you decide how hot, cold, wet, or windy it might be!

Date:

Astronomy

Sep. 06, 2013 Rise Set
Actual Time 6:41 AM EDT 7:36 PM EDT
Civil Twilight 6:12 AM EDT 8:04 PM EDT
Nautical Twilight 5:38 AM EDT 8:38 PM EDT
Astronomical Twilight 5:02 AM EDT 9:14 PM EDT
Moon 7:54 AM EDT (9/6) 7:55 PM EDT (9/6)
Length of Visible Light 13h 52m
Length of Day
12h 54m
New Moon, 1% of the Moon is Illuminated
Sep 6
New Moon
Sep 12
First Quarter
Sep 19
Full
Sep 26
Last Quarter
Oct 4
New

Hourly Weather History & Observations

Time (EDT) Temp. Windchill Dew Point Humidity Pressure Visibility Wind Dir Wind Speed Gust Speed Precip Events Conditions
12:54 AM 45.0 °F - 42.1 °F 90% 30.30 in 10.0 mi Calm Calm - N/A   Clear
1:54 AM 45.0 °F 42.6 °F 42.1 °F 90% 30.30 in 10.0 mi SE 4.6 mph - N/A   Clear
2:54 AM 45.0 °F 41.8 °F 41.0 °F 86% 30.31 in 10.0 mi SE 5.8 mph - N/A   Clear
3:54 AM 44.1 °F 40.8 °F 41.0 °F 89% 30.31 in 10.0 mi SE 5.8 mph - N/A   Clear
4:54 AM 43.0 °F 39.5 °F 39.9 °F 89% 30.32 in 10.0 mi SE 5.8 mph - N/A   Clear
5:54 AM 42.1 °F 38.4 °F 39.9 °F 92% 30.33 in 10.0 mi SE 5.8 mph - N/A   Clear
6:54 AM 42.1 °F 38.4 °F 39.0 °F 89% 30.34 in 10.0 mi SE 5.8 mph - N/A   Clear
7:54 AM 45.0 °F 41.8 °F 41.0 °F 86% 30.36 in 10.0 mi SE 5.8 mph - N/A   Clear
8:54 AM 50.0 °F - 42.1 °F 74% 30.35 in 10.0 mi SE 5.8 mph - N/A   Clear
9:54 AM 55.9 °F - 44.1 °F 64% 30.34 in 10.0 mi SSE 3.5 mph - N/A   Clear
10:54 AM 62.1 °F - 44.1 °F 52% 30.33 in 10.0 mi NNW 3.5 mph - N/A   Clear
11:54 AM 64.0 °F - 44.1 °F 48% 30.33 in 10.0 mi Variable 5.8 mph - N/A   Clear
12:54 PM 66.0 °F - 46.0 °F 48% 30.30 in 10.0 mi Variable 4.6 mph - N/A   Clear
1:54 PM 68.0 °F - 45.0 °F 43% 30.27 in 10.0 mi North 3.5 mph - N/A   Clear
2:54 PM 70.0 °F - 45.0 °F 41% 30.25 in 10.0 mi NNW 5.8 mph - N/A   Clear
3:54 PM 72.0 °F - 46.0 °F 40% 30.22 in 10.0 mi NNW 5.8 mph - N/A   Clear
4:54 PM 71.1 °F - 46.0 °F 41% 30.21 in 10.0 mi NW 3.5 mph - N/A   Clear
5:54 PM 71.1 °F - 43.0 °F 36% 30.20 in 10.0 mi NNW 4.6 mph - N/A   Clear
6:54 PM 68.0 °F - 46.0 °F 45% 30.20 in 10.0 mi Calm Calm - N/A   Clear
7:54 PM 60.1 °F - 51.1 °F 72% 30.19 in 10.0 mi South 4.6 mph - N/A   Clear
8:54 PM 57.9 °F - 51.1 °F 78% 30.20 in 10.0 mi Calm Calm - N/A   Clear
9:54 PM 55.9 °F - 50.0 °F 80% 30.18 in 10.0 mi ESE 3.5 mph - N/A   Clear
10:54 PM 55.0 °F - 50.0 °F 83% 30.17 in 10.0 mi Calm Calm - N/A   Clear
11:54 PM 54.0 °F - 48.9 °F 83% 30.17 in 10.0 mi SSE 3.5 mph - N/A   Clear